Regional Weather Roundup
Issued by NWS Charleston, WV

Home | Current Version | Previous Version | Text Only | Print | Product List | Glossary Off
Versions: 1 2 3 4 5 6 7 8 9 10 11 12 13 14 15 16 17 18 19 20 21 22 23 24 25 26 27 28 29 30 31 32 33 34 35 36 37 38 39 40 41 42 43 44 45 46 47 48 49 50

436
ASUS41 KRLX 240810
RWRRLX
West Virginia Regional Weather Roundup
National Weather Service Charleston WV
400 AM EDT SAT JUN 24 2017

Note: "fair" indicates few or no clouds below 12,000 feet with no
significant weather and/or obstructions to visibility.

WVZ003-240900-
Northern Panhandle of West Virginia

CITY           SKY/WX    TMP DP  RH WIND       PRES   REMARKS
WHEELING       LGT RAIN  67  64  90 W9        29.78R
$$

WVZ009-240900-
Northwest West Virginia

CITY           SKY/WX    TMP DP  RH WIND       PRES   REMARKS
PARKERSBURG    CLOUDY    66  64  93 SW6       29.86R
$$

WVZ006-240900-
Western West Virginia

CITY           SKY/WX    TMP DP  RH WIND       PRES   REMARKS
HUNTINGTON     LGT RAIN  66  65  96 SW3       29.88R
$$

WVZ015-240900-
West Central West Virginia

CITY           SKY/WX    TMP DP  RH WIND       PRES   REMARKS
CHARLESTON     CLOUDY    66  64  93 W7        29.88R
$$

WVZ022-031-240900-
North Central West Virginia

CITY           SKY/WX    TMP DP  RH WIND       PRES   REMARKS
CLARKSBURG     CLOUDY    66  64  93 W10       29.83R
MORGANTOWN     CLOUDY    67  64  90 W5        29.80R
$$

WVZ025-035-042-045-240900-
Southern West Virginia

CITY           SKY/WX    TMP DP  RH WIND       PRES   REMARKS
BECKLEY        CLOUDY    63  61  93 W8        29.93R
LOGAN          CLOUDY    64  64 100 CALM      29.92R
BLUEFIELD      CLOUDY    61  58  90 W9        29.96R
LEWISBURG      CLOUDY    64  60  85 W9        29.90R
$$

WVZ047-240900-
Northern Mountains of West Virginia

CITY           SKY/WX    TMP DP  RH WIND       PRES   REMARKS
ELKINS         CLOUDY    65  60  84 NW14G20   29.85R
$$

WVZ052-240900-
Eastern Panhandle of West Virginia

CITY           SKY/WX    TMP DP  RH WIND       PRES   REMARKS
MARTINSBURG    LGT RAIN  70  67  90 NW9       29.67R
PETERSBURG     MOCLDY    71  65  82 NW9       29.76R
$$




USA.gov is the U.S. government's official web portal to all federal, state and local government web resources and services.